Location: Unspecified
(0.0000°N, 0.0000°E)
Time: 14:57:27
(UTC+00:00)

FALCON 9 R/B - Pass Details

Date: 31 October 2020
Orbit: 485 x 62261 km, 25.4° (Epoch: 27 November)

Event Time Altitude Azimuth Distance (km) Brightness Sun altitude
Exits shadow 22:39:45 19° 64° (ENE) 11,020 ? -68.6°
Maximum altitude 07:07:47 67° 356° (N) 62,175 ? 20.3°
Drops below altitude 10° 13:16:49 10° 284° (WNW) 55,072 ? 62.7°
Sets 14:12:57 0° 282° (WNW) 50,808 ? 50.3°
